PrentiSS Brown — WDE6848 — position and weather

sailwx.info

Track history (hours):
 
Tides and Currents Weather Stations Pressure Air Temp Water Temp Dewpoint Dewpoint Depression Visibility Wind Speed Wind Dir Waves Ship Positions

PrentiSS Brown

Owner: Port City Marine Services Inc, Muskegon, MI. More information available from US FCC via Universal Licensing System and Coast Guard Vessel Documentation Center.

Last reported at 2017-Jan-26 01:11 UTC. Time now 2017-Feb-27 14:19 UTC.
Position N 45°46' W 085°48'.
Warning: this ship's position is 32 days out of date.

; draft 7 m.

Type: Other ship. MMSI: 366922280.

Date/timePositionNaut miles runAvg speedWind from/ knotsBaromVisibWave heightAir tempDewpointWater temp
2017-Jan-26 01:11N 45°46' W 085°48'4 6.6
2017-Jan-26 00:33N 45°42' W 085°45'8 8.4
2017-Jan-25 23:33N 45°35' W 085°40'8 8.2
2017-Jan-25 22:33N 45°28' W 085°33'9 8.6
2017-Jan-25 21:33N 45°23' W 085°23'6 5.6
2017-Jan-25 20:33N 45°19' W 085°18'0 0.0
2017-Jan-25 19:33N 45°19' W 085°18'0 0.0
2017-Jan-25 18:33N 45°19' W 085°18'0 0.0
2017-Jan-25 17:33N 45°19' W 085°18'0 0.0
2017-Jan-25 16:33N 45°19' W 085°18'0 0.0
2017-Jan-25 15:33N 45°19' W 085°18'0 0.3
2017-Jan-25 14:33N 45°19' W 085°17'7 6.9
2017-Jan-25 13:33N 45°17' W 085°27'  
2017-Jan-21 21:23N 45°13' W 085°38'7 8.7
2017-Jan-21 20:33N 45°17' W 085°29'9 8.5
2017-Jan-21 19:33N 45°20' W 085°18'1 1.2
2017-Jan-21 18:33N 45°19' W 085°18'0 0.0
2017-Jan-21 17:33N 45°19' W 085°18'0 0.0
2017-Jan-21 16:33N 45°19' W 085°18'0 0.0
2017-Jan-21 15:33N 45°19' W 085°18'0 0.0
2017-Jan-21 14:33N 45°19' W 085°18'0 0.0
2017-Jan-21 13:33N 45°19' W 085°18'1 1.0
2017-Jan-21 12:33N 45°20' W 085°17'9 8.8
2017-Jan-21 11:33N 45°17' W 085°29'  
2017-Jan-18 05:33N 45°15' W 085°39'9 8.7
2017-Jan-18 04:33N 45°18' W 085°28'7 7.4
2017-Jan-18 03:33N 45°19' W 085°17'0 0.4
2017-Jan-18 02:33N 45°19' W 085°18'0 0.0
2017-Jan-18 01:33N 45°19' W 085°18'0 0.0
2017-Jan-18 00:33N 45°19' W 085°18'0 0.0
2017-Jan-17 23:33N 45°19' W 085°18'0 0.0
2017-Jan-17 22:33N 45°19' W 085°18'0 0.0
2017-Jan-17 21:33N 45°19' W 085°18'3 3.1
2017-Jan-17 20:33N 45°19' W 085°22'9 9.2
2017-Jan-17 19:33N 45°15' W 085°34'  
Track history (hours):
 
Tides and Currents Weather Stations Pressure Air Temp Water Temp Dewpoint Dewpoint Depression Visibility Wind Speed Wind Dir Waves Ship Positions

PrentiSS Brown

Owner: Port City Marine Services Inc, Muskegon, MI. More information available from US FCC via Universal Licensing System and Coast Guard Vessel Documentation Center.

Last reported at 2017-Jan-26 01:11 UTC. Time now 2017-Feb-27 14:19 UTC.
Position N 45°46' W 085°48'.
Warning: this ship's position is 32 days out of date.

; draft 7 m.

Type: Other ship. MMSI: 366922280.

Date/timePositionNaut miles runAvg speedWind from/ knotsBaromVisibWave heightAir tempDewpointWater temp
2017-Jan-26 01:11N 45°46' W 085°48'4 6.6
2017-Jan-26 00:33N 45°42' W 085°45'8 8.4
2017-Jan-25 23:33N 45°35' W 085°40'8 8.2
2017-Jan-25 22:33N 45°28' W 085°33'9 8.6
2017-Jan-25 21:33N 45°23' W 085°23'6 5.6
2017-Jan-25 20:33N 45°19' W 085°18'0 0.0
2017-Jan-25 19:33N 45°19' W 085°18'0 0.0
2017-Jan-25 18:33N 45°19' W 085°18'0 0.0
2017-Jan-25 17:33N 45°19' W 085°18'0 0.0
2017-Jan-25 16:33N 45°19' W 085°18'0 0.0
2017-Jan-25 15:33N 45°19' W 085°18'0 0.3
2017-Jan-25 14:33N 45°19' W 085°17'7 6.9
2017-Jan-25 13:33N 45°17' W 085°27'  
2017-Jan-21 21:23N 45°13' W 085°38'7 8.7
2017-Jan-21 20:33N 45°17' W 085°29'9 8.5
2017-Jan-21 19:33N 45°20' W 085°18'1 1.2
2017-Jan-21 18:33N 45°19' W 085°18'0 0.0
2017-Jan-21 17:33N 45°19' W 085°18'0 0.0
2017-Jan-21 16:33N 45°19' W 085°18'0 0.0
2017-Jan-21 15:33N 45°19' W 085°18'0 0.0
2017-Jan-21 14:33N 45°19' W 085°18'0 0.0
2017-Jan-21 13:33N 45°19' W 085°18'1 1.0
2017-Jan-21 12:33N 45°20' W 085°17'9 8.8
2017-Jan-21 11:33N 45°17' W 085°29'  
2017-Jan-18 05:33N 45°15' W 085°39'9 8.7
2017-Jan-18 04:33N 45°18' W 085°28'7 7.4
2017-Jan-18 03:33N 45°19' W 085°17'0 0.4
2017-Jan-18 02:33N 45°19' W 085°18'0 0.0
2017-Jan-18 01:33N 45°19' W 085°18'0 0.0
2017-Jan-18 00:33N 45°19' W 085°18'0 0.0
2017-Jan-17 23:33N 45°19' W 085°18'0 0.0
2017-Jan-17 22:33N 45°19' W 085°18'0 0.0
2017-Jan-17 21:33N 45°19' W 085°18'3 3.1
2017-Jan-17 20:33N 45°19' W 085°22'9 9.2
2017-Jan-17 19:33N 45°15' W 085°34'  

Dump ship's entire track history